owner,sensor,date,latitude,longitude,vertical_datum,mass_concentration_of_oxygen_in_sea_water,qcFlag 
SCCF RECON,ioos:station:SCCF:13:1,2016-02-12T19:00:00Z,26.5255,-82.0032,2.61,8.24,1111122 
SCCF RECON,ioos:station:SCCF:13:1,2016-02-12T20:00:00Z,26.5255,-82.0032,2.66,8.32,1111122 
SCCF RECON,ioos:station:SCCF:13:1,2016-02-12T21:00:00Z,26.5255,-82.0032,2.696,8.62,1111122 
SCCF RECON,ioos:station:SCCF:13:1,2016-02-12T22:00:00Z,26.5255,-82.0032,2.7,8.75,1111122 
SCCF RECON,ioos:station:SCCF:13:1,2016-02-12T23:00:00Z,26.5255,-82.0032,2.62,8.65,1111122 
SCCF RECON,ioos:station:SCCF:13:1,2016-02-13T00:00:00Z,26.5255,-82.0032,2.492,8.74,1111122 
SCCF RECON,ioos:station:SCCF:13:1,2016-02-13T01:00:00Z,26.5255,-82.0032,2.39,8.46,1111122 
SCCF RECON,ioos:station:SCCF:13:1,2016-02-13T02:00:00Z,26.5255,-82.0032,2.312,8.44,1111122 
SCCF RECON,ioos:station:SCCF:13:1,2016-02-13T03:00:00Z,26.5255,-82.0032,2.25,8.54,1111122 
SCCF RECON,ioos:station:SCCF:13:1,2016-02-13T04:00:00Z,26.5255,-82.0032,2.21,8.5,1111122 
SCCF RECON,ioos:station:SCCF:13:1,2016-02-13T05:00:00Z,26.5255,-82.0032,2.28,8.52,1111122 
SCCF RECON,ioos:station:SCCF:13:1,2016-02-13T06:00:00Z,26.5255,-82.0032,2.434,8.56,1111122 
SCCF RECON,ioos:station:SCCF:13:1,2016-02-13T07:00:00Z,26.5255,-82.0032,2.53,8.27,1111122 
SCCF RECON,ioos:station:SCCF:13:1,2016-02-13T08:00:00Z,26.5255,-82.0032,2.58,8.04,1111122 
SCCF RECON,ioos:station:SCCF:13:1,2016-02-13T09:00:00Z,26.5255,-82.0032,2.63,8.11,1111122 
SCCF RECON,ioos:station:SCCF:13:1,2016-02-13T10:00:00Z,26.5255,-82.0032,2.67,8.02,1111122 
SCCF RECON,ioos:station:SCCF:13:1,2016-02-13T11:00:00Z,26.5255,-82.0032,2.67,8.05,1111122 
SCCF RECON,ioos:station:SCCF:13:1,2016-02-13T12:00:00Z,26.5255,-82.0032,2.59,8.0,1111122 
SCCF RECON,ioos:station:SCCF:13:1,2016-02-13T13:00:00Z,26.5255,-82.0032,2.488,7.87,1111122 
SCCF RECON,ioos:station:SCCF:13:1,2016-02-13T14:00:00Z,26.5255,-82.0032,2.416,8.07,1111122 
SCCF RECON,ioos:station:SCCF:13:1,2016-02-13T15:00:00Z,26.5255,-82.0032,2.37,8.23,1111122 
SCCF RECON,ioos:station:SCCF:13:1,2016-02-13T16:00:00Z,26.5255,-82.0032,2.348,8.35,1111122 
SCCF RECON,ioos:station:SCCF:13:1,2016-02-13T17:00:00Z,26.5255,-82.0032,2.4,8.49,1111122 
SCCF RECON,ioos:station:SCCF:13:1,2016-02-13T18:00:00Z,26.5255,-82.0032,2.53,8.46,1111122 
SCCF RECON,ioos:station:SCCF:13:1,2016-02-13T19:00:00Z,26.5255,-82.0032,2.62,7.83,1111122 
SCCF RECON,ioos:station:SCCF:13:1,2016-02-13T20:00:00Z,26.5255,-82.0032,2.669,8.31,1111122 
SCCF RECON,ioos:station:SCCF:13:1,2016-02-13T21:00:00Z,26.5255,-82.0032,2.742,8.92,1111122 
SCCF RECON,ioos:station:SCCF:13:1,2016-02-13T22:00:00Z,26.5255,-82.0032,2.777,9.35,1111122 
SCCF RECON,ioos:station:SCCF:13:1,2016-02-13T23:00:00Z,26.5255,-82.0032,2.75,9.43,1111122 
SCCF RECON,ioos:station:SCCF:13:1,2016-02-14T00:00:00Z,26.5255,-82.0032,2.66,9.21,1111122 
SCCF RECON,ioos:station:SCCF:13:1,2016-02-14T01:00:00Z,26.5255,-82.0032,2.53,8.73,1111122 
SCCF RECON,ioos:station:SCCF:13:1,2016-02-14T02:00:00Z,26.5255,-82.0032,2.429,8.46,1111122 
SCCF RECON,ioos:station:SCCF:13:1,2016-02-14T03:00:00Z,26.5255,-82.0032,2.34,8.53,1111122 
SCCF RECON,ioos:station:SCCF:13:1,2016-02-14T04:00:00Z,26.5255,-82.0032,2.268,8.48,1111122 
SCCF RECON,ioos:station:SCCF:13:1,2016-02-14T05:00:00Z,26.5255,-82.0032,2.21,8.55,1111122 
SCCF RECON,ioos:station:SCCF:13:1,2016-02-14T06:00:00Z,26.5255,-82.0032,2.23,8.48,1111122 
SCCF RECON,ioos:station:SCCF:13:1,2016-02-14T07:00:00Z,26.5255,-82.0032,2.32,8.45,1111122 
SCCF RECON,ioos:station:SCCF:13:1,2016-02-14T08:00:00Z,26.5255,-82.0032,2.337,8.44,1111122 
SCCF RECON,ioos:station:SCCF:13:1,2016-02-14T09:00:00Z,26.5255,-82.0032,2.35,8.43,1111122 
SCCF RECON,ioos:station:SCCF:13:1,2016-02-14T10:00:00Z,26.5255,-82.0032,2.39,8.45,1111122 
SCCF RECON,ioos:station:SCCF:13:1,2016-02-14T11:00:00Z,26.5255,-82.0032,2.411,7.81,1111122 
SCCF RECON,ioos:station:SCCF:13:1,2016-02-14T12:00:00Z,26.5255,-82.0032,2.405,7.85,1111122 
SCCF RECON,ioos:station:SCCF:13:1,2016-02-14T13:00:00Z,26.5255,-82.0032,2.36,7.85,1111122 
SCCF RECON,ioos:station:SCCF:13:1,2016-02-14T14:00:00Z,26.5255,-82.0032,2.32,7.91,1111122 
SCCF RECON,ioos:station:SCCF:13:1,2016-02-14T15:00:00Z,26.5255,-82.0032,2.266,8.42,1111122 
SCCF RECON,ioos:station:SCCF:13:1,2016-02-14T16:00:00Z,26.5255,-82.0032,2.23,8.56,1111122 
SCCF RECON,ioos:station:SCCF:13:1,2016-02-14T17:00:00Z,26.5255,-82.0032,2.288,8.59,1111122 
SCCF RECON,ioos:station:SCCF:13:1,2016-02-14T18:00:00Z,26.5255,-82.0032,2.378,8.25,1111122 
SCCF RECON,ioos:station:SCCF:13:1,2016-02-14T19:00:00Z,26.5255,-82.0032,2.473,7.96,1111122 
SCCF RECON,ioos:station:SCCF:13:1,2016-02-14T20:00:00Z,26.5255,-82.0032,2.573,8.68,1111122 
SCCF RECON,ioos:station:SCCF:13:1,2016-02-14T21:00:00Z,26.5255,-82.0032,2.66,9.69,1111122 
SCCF RECON,ioos:station:SCCF:13:1,2016-02-14T22:00:00Z,26.5255,-82.0032,2.71,9.91,1111122 
SCCF RECON,ioos:station:SCCF:13:1,2016-02-14T23:00:00Z,26.5255,-82.0032,2.724,10.27,1111122 
SCCF RECON,ioos:station:SCCF:13:1,2016-02-15T00:00:00Z,26.5255,-82.0032,2.71,10.11,1111122 
SCCF RECON,ioos:station:SCCF:13:1,2016-02-15T01:00:00Z,26.5255,-82.0032,2.66,9.87,1111122 
SCCF RECON,ioos:station:SCCF:13:1,2016-02-15T02:00:00Z,26.5255,-82.0032,2.56,9.75,1111122 
SCCF RECON,ioos:station:SCCF:13:1,2016-02-15T03:00:00Z,26.5255,-82.0032,2.43,9.35,1111122 
SCCF RECON,ioos:station:SCCF:13:1,2016-02-15T04:00:00Z,26.5255,-82.0032,2.34,9.06,1111122 
SCCF RECON,ioos:station:SCCF:13:1,2016-02-15T05:00:00Z,26.5255,-82.0032,2.256,9.02,1111122 
SCCF RECON,ioos:station:SCCF:13:1,2016-02-15T06:00:00Z,26.5255,-82.0032,2.2,8.8,1111122 
SCCF RECON,ioos:station:SCCF:13:1,2016-02-15T07:00:00Z,26.5255,-82.0032,2.198,8.65,1111122 
SCCF RECON,ioos:station:SCCF:13:1,2016-02-15T08:00:00Z,26.5255,-82.0032,2.27,8.63,1111122 
SCCF RECON,ioos:station:SCCF:13:1,2016-02-15T09:00:00Z,26.5255,-82.0032,2.37,8.63,1111122 
SCCF RECON,ioos:station:SCCF:13:1,2016-02-15T10:00:00Z,26.5255,-82.0032,2.39,8.55,1111122 
SCCF RECON,ioos:station:SCCF:13:1,2016-02-15T11:00:00Z,26.5255,-82.0032,2.422,8.38,1111122 
SCCF RECON,ioos:station:SCCF:13:1,2016-02-15T12:00:00Z,26.5255,-82.0032,2.472,8.5,1111122 
SCCF RECON,ioos:station:SCCF:13:1,2016-02-15T13:00:00Z,26.5255,-82.0032,2.502,8.42,1111122 
SCCF RECON,ioos:station:SCCF:13:1,2016-02-15T14:00:00Z,26.5255,-82.0032,2.53,8.28,1111122 
SCCF RECON,ioos:station:SCCF:13:1,2016-02-15T15:00:00Z,26.5255,-82.0032,2.512,8.27,1111122 
SCCF RECON,ioos:station:SCCF:13:1,2016-02-15T16:00:00Z,26.5255,-82.0032,2.466,8.37,1111122 
SCCF RECON,ioos:station:SCCF:13:1,2016-02-15T17:00:00Z,26.5255,-82.0032,2.451,8.32,1111122 
SCCF RECON,ioos:station:SCCF:13:1,2016-02-15T18:00:00Z,26.5255,-82.0032,2.488,7.59,1111122 
SCCF RECON,ioos:station:SCCF:13:1,2016-02-15T19:00:00Z,26.5255,-82.0032,2.544,8.0,1111122 
SCCF RECON,ioos:station:SCCF:13:1,2016-02-15T20:00:00Z,26.5255,-82.0032,2.593,8.66,1111122 
SCCF RECON,ioos:station:SCCF:13:1,2016-02-15T21:00:00Z,26.5255,-82.0032,2.67,9.05,1111122 
SCCF RECON,ioos:station:SCCF:13:1,2016-02-15T22:00:00Z,26.5255,-82.0032,2.722,9.28,1111122 
SCCF RECON,ioos:station:SCCF:13:1,2016-02-15T23:00:00Z,26.5255,-82.0032,2.77,9.18,1111122 
SCCF RECON,ioos:station:SCCF:13:1,2016-02-16T00:00:00Z,26.5255,-82.0032,2.794,9.03,1111122 
SCCF RECON,ioos:station:SCCF:13:1,2016-02-16T01:00:00Z,26.5255,-82.0032,2.78,9.01,1111122 
SCCF RECON,ioos:station:SCCF:13:1,2016-02-16T02:00:00Z,26.5255,-82.0032,2.71,8.93,1111122 
SCCF RECON,ioos:station:SCCF:13:1,2016-02-16T03:00:00Z,26.5255,-82.0032,2.623,8.81,1111122 
SCCF RECON,ioos:station:SCCF:13:1,2016-02-16T04:00:00Z,26.5255,-82.0032,2.52,8.56,1111122 
SCCF RECON,ioos:station:SCCF:13:1,2016-02-16T05:00:00Z,26.5255,-82.0032,2.43,8.46,1111122 
SCCF RECON,ioos:station:SCCF:13:1,2016-02-16T06:00:00Z,26.5255,-82.0032,2.35,8.57,1111122 
SCCF RECON,ioos:station:SCCF:13:1,2016-02-16T07:00:00Z,26.5255,-82.0032,2.28,8.57,1111122 
SCCF RECON,ioos:station:SCCF:13:1,2016-02-16T08:00:00Z,26.5255,-82.0032,2.255,8.54,1111122 
SCCF RECON,ioos:station:SCCF:13:1,2016-02-16T09:00:00Z,26.5255,-82.0032,2.347,8.41,1111122 
SCCF RECON,ioos:station:SCCF:13:1,2016-02-16T10:00:00Z,26.5255,-82.0032,2.525,8.3,1111122 
SCCF RECON,ioos:station:SCCF:13:1,2016-02-16T11:00:00Z,26.5255,-82.0032,2.58,8.14,1111122 
SCCF RECON,ioos:station:SCCF:13:1,2016-02-16T12:00:00Z,26.5255,-82.0032,2.56,7.97,1111122 
SCCF RECON,ioos:station:SCCF:13:1,2016-02-16T13:00:00Z,26.5255,-82.0032,2.45,8.03,1111122 
SCCF RECON,ioos:station:SCCF:13:1,2016-02-16T14:00:00Z,26.5255,-82.0032,2.52,7.98,1111122 
SCCF RECON,ioos:station:SCCF:13:1,2016-02-16T15:00:00Z,26.5255,-82.0032,2.63,7.63,1111122 
SCCF RECON,ioos:station:SCCF:13:1,2016-02-16T16:00:00Z,26.5255,-82.0032,2.59,7.64,1111122 
SCCF RECON,ioos:station:SCCF:13:1,2016-02-16T17:00:00Z,26.5255,-82.0032,2.5,7.76,1111122 
SCCF RECON,ioos:station:SCCF:13:1,2016-02-16T18:00:00Z,26.5255,-82.0032,2.472,7.82,1111122 
SCCF RECON,ioos:station:SCCF:13:1,2016-02-16T19:00:00Z,26.5255,-82.0032,2.439,7.62,1111122 
SCCF RECON,ioos:station:SCCF:13:1,2016-02-16T20:00:00Z,26.5255,-82.0032,2.4,8.44,1111122 
SCCF RECON,ioos:station:SCCF:13:1,2016-02-16T21:00:00Z,26.5255,-82.0032,2.49,8.27,1111122 
SCCF RECON,ioos:station:SCCF:13:1,2016-02-16T22:00:00Z,26.5255,-82.0032,2.56,7.33,1111122 
SCCF RECON,ioos:station:SCCF:13:1,2016-02-16T23:00:00Z,26.5255,-82.0032,2.601,7.53,1111122 
SCCF RECON,ioos:station:SCCF:13:1,2016-02-17T00:00:00Z,26.5255,-82.0032,2.688,7.63,1111122 
SCCF RECON,ioos:station:SCCF:13:1,2016-02-17T01:00:00Z,26.5255,-82.0032,2.74,7.73,1111122 
SCCF RECON,ioos:station:SCCF:13:1,2016-02-17T02:00:00Z,26.5255,-82.0032,2.7,7.83,1111122 
SCCF RECON,ioos:station:SCCF:13:1,2016-02-17T03:00:00Z,26.5255,-82.0032,2.64,7.89,1111122 
SCCF RECON,ioos:station:SCCF:13:1,2016-02-17T04:00:00Z,26.5255,-82.0032,2.568,8.03,1111122 
SCCF RECON,ioos:station:SCCF:13:1,2016-02-17T05:00:00Z,26.5255,-82.0032,2.45,8.17,1111122 
SCCF RECON,ioos:station:SCCF:13:1,2016-02-17T06:00:00Z,26.5255,-82.0032,2.359,8.28,1111122 
SCCF RECON,ioos:station:SCCF:13:1,2016-02-17T07:00:00Z,26.5255,-82.0032,2.271,8.31,1111122 
SCCF RECON,ioos:station:SCCF:13:1,2016-02-17T08:00:00Z,26.5255,-82.0032,2.2,8.41,1111122 
SCCF RECON,ioos:station:SCCF:13:1,2016-02-17T09:00:00Z,26.5255,-82.0032,2.178,8.37,1111122 
SCCF RECON,ioos:station:SCCF:13:1,2016-02-17T10:00:00Z,26.5255,-82.0032,2.21,8.35,1111122 
SCCF RECON,ioos:station:SCCF:13:1,2016-02-17T11:00:00Z,26.5255,-82.0032,2.301,8.34,1111122 
SCCF RECON,ioos:station:SCCF:13:1,2016-02-17T12:00:00Z,26.5255,-82.0032,2.4,8.37,1111122 
SCCF RECON,ioos:station:SCCF:13:1,2016-02-17T13:00:00Z,26.5255,-82.0032,2.48,8.29,1111122 
SCCF RECON,ioos:station:SCCF:13:1,2016-02-17T14:00:00Z,26.5255,-82.0032,2.53,7.55,1111122 
SCCF RECON,ioos:station:SCCF:13:1,2016-02-17T15:00:00Z,26.5255,-82.0032,2.58,7.63,1111122 
SCCF RECON,ioos:station:SCCF:13:1,2016-02-17T16:00:00Z,26.5255,-82.0032,2.599,7.85,1111122 
SCCF RECON,ioos:station:SCCF:13:1,2016-02-17T17:00:00Z,26.5255,-82.0032,2.567,7.71,1111122 
SCCF RECON,ioos:station:SCCF:13:1,2016-02-17T18:00:00Z,26.5255,-82.0032,2.481,7.68,1111122 
SCCF RECON,ioos:station:SCCF:13:1,2016-02-17T19:00:00Z,26.5255,-82.0032,2.421,7.75,1111122 
SCCF RECON,ioos:station:SCCF:13:1,2016-02-17T20:00:00Z,26.5255,-82.0032,2.411,8.39,1111122 
SCCF RECON,ioos:station:SCCF:13:1,2016-02-17T21:00:00Z,26.5255,-82.0032,2.428,8.58,1111122 
SCCF RECON,ioos:station:SCCF:13:1,2016-02-17T22:00:00Z,26.5255,-82.0032,2.49,8.27,1111122 
SCCF RECON,ioos:station:SCCF:13:1,2016-02-17T23:00:00Z,26.5255,-82.0032,2.547,7.57,1111122 
SCCF RECON,ioos:station:SCCF:13:1,2016-02-18T00:00:00Z,26.5255,-82.0032,2.59,7.75,1111122 
SCCF RECON,ioos:station:SCCF:13:1,2016-02-18T01:00:00Z,26.5255,-82.0032,2.61,7.76,1111122 
SCCF RECON,ioos:station:SCCF:13:1,2016-02-18T02:00:00Z,26.5255,-82.0032,2.63,7.54,1111122 
SCCF RECON,ioos:station:SCCF:13:1,2016-02-18T03:00:00Z,26.5255,-82.0032,2.66,7.34,1111122 
SCCF RECON,ioos:station:SCCF:13:1,2016-02-18T04:00:00Z,26.5255,-82.0032,2.615,7.44,1111122 
SCCF RECON,ioos:station:SCCF:13:1,2016-02-18T05:00:00Z,26.5255,-82.0032,2.51,7.65,1111122 
SCCF RECON,ioos:station:SCCF:13:1,2016-02-18T06:00:00Z,26.5255,-82.0032,2.38,7.96,1111122 
SCCF RECON,ioos:station:SCCF:13:1,2016-02-18T07:00:00Z,26.5255,-82.0032,2.28,8.12,1111122 
SCCF RECON,ioos:station:SCCF:13:1,2016-02-18T08:00:00Z,26.5255,-82.0032,2.183,8.21,1111122 
SCCF RECON,ioos:station:SCCF:13:1,2016-02-18T09:00:00Z,26.5255,-82.0032,2.103,8.31,1111122 
SCCF RECON,ioos:station:SCCF:13:1,2016-02-18T10:00:00Z,26.5255,-82.0032,2.05,8.23,1111122 
SCCF RECON,ioos:station:SCCF:13:1,2016-02-18T11:00:00Z,26.5255,-82.0032,2.05,8.15,1111122 
SCCF RECON,ioos:station:SCCF:13:1,2016-02-18T12:00:00Z,26.5255,-82.0032,2.15,8.15,1111122 
SCCF RECON,ioos:station:SCCF:13:1,2016-02-18T13:00:00Z,26.5255,-82.0032,2.24,8.19,1111122 
SCCF RECON,ioos:station:SCCF:13:1,2016-02-18T14:00:00Z,26.5255,-82.0032,2.318,8.24,1111122 
SCCF RECON,ioos:station:SCCF:13:1,2016-02-18T15:00:00Z,26.5255,-82.0032,2.391,8.28,1111122 
SCCF RECON,ioos:station:SCCF:13:1,2016-02-18T16:00:00Z,26.5255,-82.0032,2.46,8.03,1111122 
SCCF RECON,ioos:station:SCCF:13:1,2016-02-18T17:00:00Z,26.5255,-82.0032,2.498,7.51,1111122 
SCCF RECON,ioos:station:SCCF:13:1,2016-02-18T18:00:00Z,26.5255,-82.0032,2.48,7.82,1111122 
SCCF RECON,ioos:station:SCCF:13:1,2016-02-18T19:00:00Z,26.5255,-82.0032,2.442,7.49,1111122 
SCCF RECON,ioos:station:SCCF:13:1,2016-02-18T20:00:00Z,26.5255,-82.0032,2.401,7.56,1111122 
SCCF RECON,ioos:station:SCCF:13:1,2016-02-18T21:00:00Z,26.5255,-82.0032,2.37,8.19,1111122 
SCCF RECON,ioos:station:SCCF:13:1,2016-02-18T22:00:00Z,26.5255,-82.0032,2.397,7.96,1111122 
SCCF RECON,ioos:station:SCCF:13:1,2016-02-18T23:00:00Z,26.5255,-82.0032,2.49,7.04,1111122 
SCCF RECON,ioos:station:SCCF:13:1,2016-02-19T00:00:00Z,26.5255,-82.0032,2.597,7.55,1111122 
SCCF RECON,ioos:station:SCCF:13:1,2016-02-19T01:00:00Z,26.5255,-82.0032,2.631,7.62,1111122 
SCCF RECON,ioos:station:SCCF:13:1,2016-02-19T02:00:00Z,26.5255,-82.0032,2.65,7.28,1111122 
SCCF RECON,ioos:station:SCCF:13:1,2016-02-19T03:00:00Z,26.5255,-82.0032,2.67,7.17,1111122 
SCCF RECON,ioos:station:SCCF:13:1,2016-02-19T04:00:00Z,26.5255,-82.0032,2.67,7.16,1111122 
SCCF RECON,ioos:station:SCCF:13:1,2016-02-19T05:00:00Z,26.5255,-82.0032,2.63,6.97,1111122 
SCCF RECON,ioos:station:SCCF:13:1,2016-02-19T06:00:00Z,26.5255,-82.0032,2.5,7.17,1111122 
SCCF RECON,ioos:station:SCCF:13:1,2016-02-19T07:00:00Z,26.5255,-82.0032,2.36,7.39,1111122 
SCCF RECON,ioos:station:SCCF:13:1,2016-02-19T08:00:00Z,26.5255,-82.0032,2.25,8.17,1111122 
SCCF RECON,ioos:station:SCCF:13:1,2016-02-19T09:00:00Z,26.5255,-82.0032,2.16,8.25,1111122 
SCCF RECON,ioos:station:SCCF:13:1,2016-02-19T10:00:00Z,26.5255,-82.0032,2.07,8.29,1111122 
SCCF RECON,ioos:station:SCCF:13:1,2016-02-19T11:00:00Z,26.5255,-82.0032,2.03,8.22,1111122 
SCCF RECON,ioos:station:SCCF:13:1,2016-02-19T12:00:00Z,26.5255,-82.0032,2.11,8.24,1111122 
SCCF RECON,ioos:station:SCCF:13:1,2016-02-19T13:00:00Z,26.5255,-82.0032,2.27,8.27,1111122 
SCCF RECON,ioos:station:SCCF:13:1,2016-02-19T14:00:00Z,26.5255,-82.0032,2.357,8.34,1111122 
SCCF RECON,ioos:station:SCCF:13:1,2016-02-19T15:00:00Z,26.5255,-82.0032,2.398,8.22,1111122 
SCCF RECON,ioos:station:SCCF:13:1,2016-02-19T16:00:00Z,26.5255,-82.0032,2.49,7.5,1111122 
SCCF RECON,ioos:station:SCCF:13:1,2016-02-19T17:00:00Z,26.5255,-82.0032,2.549,7.29,1111122 
SCCF RECON,ioos:station:SCCF:13:1,2016-02-19T18:00:00Z,26.5255,-82.0032,2.539,7.6,1111122 
SCCF RECON,ioos:station:SCCF:13:1,2016-02-19T19:00:00Z,26.5255,-82.0032,2.484,7.6,1111122 
SCCF RECON,ioos:station:SCCF:13:1,2016-02-19T20:00:00Z,26.5255,-82.0032,2.44,7.44,1111122 
SCCF RECON,ioos:station:SCCF:13:1,2016-02-19T21:00:00Z,26.5255,-82.0032,2.401,7.66,1111122 
SCCF RECON,ioos:station:SCCF:13:1,2016-02-19T22:00:00Z,26.5255,-82.0032,2.405,7.71,1111122 
SCCF RECON,ioos:station:SCCF:13:1,2016-02-19T23:00:00Z,26.5255,-82.0032,2.43,7.44,1111122 
SCCF RECON,ioos:station:SCCF:13:1,2016-02-20T00:00:00Z,26.5255,-82.0032,2.5,6.91,1111122 
SCCF RECON,ioos:station:SCCF:13:1,2016-02-20T01:00:00Z,26.5255,-82.0032,2.58,7.84,1111122 
SCCF RECON,ioos:station:SCCF:13:1,2016-02-20T02:00:00Z,26.5255,-82.0032,2.636,7.6,1111122 
SCCF RECON,ioos:station:SCCF:13:1,2016-02-20T03:00:00Z,26.5255,-82.0032,2.68,7.79,1111122 
SCCF RECON,ioos:station:SCCF:13:1,2016-02-20T04:00:00Z,26.5255,-82.0032,2.711,7.81,1111122 
SCCF RECON,ioos:station:SCCF:13:1,2016-02-20T05:00:00Z,26.5255,-82.0032,2.73,7.66,1111122 
SCCF RECON,ioos:station:SCCF:13:1,2016-02-20T06:00:00Z,26.5255,-82.0032,2.66,7.5,1111122 
SCCF RECON,ioos:station:SCCF:13:1,2016-02-20T07:00:00Z,26.5255,-82.0032,2.54,7.45,1111122 
SCCF RECON,ioos:station:SCCF:13:1,2016-02-20T08:00:00Z,26.5255,-82.0032,2.4,7.49,1111122 
SCCF RECON,ioos:station:SCCF:13:1,2016-02-20T09:00:00Z,26.5255,-82.0032,2.3,8.12,1111122 
SCCF RECON,ioos:station:SCCF:13:1,2016-02-20T10:00:00Z,26.5255,-82.0032,2.209,8.13,1111122 
SCCF RECON,ioos:station:SCCF:13:1,2016-02-20T11:00:00Z,26.5255,-82.0032,2.13,8.13,1111122 
SCCF RECON,ioos:station:SCCF:13:1,2016-02-20T12:00:00Z,26.5255,-82.0032,2.12,8.07,1111122 
SCCF RECON,ioos:station:SCCF:13:1,2016-02-20T13:00:00Z,26.5255,-82.0032,2.24,8.14,1111122 
SCCF RECON,ioos:station:SCCF:13:1,2016-02-20T14:00:00Z,26.5255,-82.0032,2.39,8.21,1111122 
SCCF RECON,ioos:station:SCCF:13:1,2016-02-20T15:00:00Z,26.5255,-82.0032,2.483,7.92,1111122 
SCCF RECON,ioos:station:SCCF:13:1,2016-02-20T16:00:00Z,26.5255,-82.0032,2.546,7.48,1111122 
SCCF RECON,ioos:station:SCCF:13:1,2016-02-20T17:00:00Z,26.5255,-82.0032,2.598,7.4,1111122 
SCCF RECON,ioos:station:SCCF:13:1,2016-02-20T18:00:00Z,26.5255,-82.0032,2.609,7.62,1111122 
SCCF RECON,ioos:station:SCCF:13:1,2016-02-20T19:00:00Z,26.5255,-82.0032,2.566,7.67,1111122 
SCCF RECON,ioos:station:SCCF:13:1,2016-02-20T20:00:00Z,26.5255,-82.0032,2.482,7.73,1111122 
SCCF RECON,ioos:station:SCCF:13:1,2016-02-20T21:00:00Z,26.5255,-82.0032,2.42,7.69,1111122 
SCCF RECON,ioos:station:SCCF:13:1,2016-02-20T22:00:00Z,26.5255,-82.0032,2.4,7.5,1111122 
SCCF RECON,ioos:station:SCCF:13:1,2016-02-20T23:00:00Z,26.5255,-82.0032,2.383,8.17,1111122 
SCCF RECON,ioos:station:SCCF:13:1,2016-02-21T00:00:00Z,26.5255,-82.0032,2.414,8.12,1111122 
SCCF RECON,ioos:station:SCCF:13:1,2016-02-21T01:00:00Z,26.5255,-82.0032,2.508,7.11,1111122 
SCCF RECON,ioos:station:SCCF:13:1,2016-02-21T02:00:00Z,26.5255,-82.0032,2.611,7.51,1111122 
SCCF RECON,ioos:station:SCCF:13:1,2016-02-21T03:00:00Z,26.5255,-82.0032,2.7,7.67,1111122 
SCCF RECON,ioos:station:SCCF:13:1,2016-02-21T04:00:00Z,26.5255,-82.0032,2.75,7.75,1111122 
SCCF RECON,ioos:station:SCCF:13:1,2016-02-21T05:00:00Z,26.5255,-82.0032,2.78,7.88,1111122 
SCCF RECON,ioos:station:SCCF:13:1,2016-02-21T06:00:00Z,26.5255,-82.0032,2.755,7.75,1111122 
SCCF RECON,ioos:station:SCCF:13:1,2016-02-21T07:00:00Z,26.5255,-82.0032,2.64,7.72,1111122 
SCCF RECON,ioos:station:SCCF:13:1,2016-02-21T08:00:00Z,26.5255,-82.0032,2.5,7.46,1111122 
SCCF RECON,ioos:station:SCCF:13:1,2016-02-21T09:00:00Z,26.5255,-82.0032,2.38,7.8,1111122 
SCCF RECON,ioos:station:SCCF:13:1,2016-02-21T10:00:00Z,26.5255,-82.0032,2.29,7.86,1111122 
SCCF RECON,ioos:station:SCCF:13:1,2016-02-21T11:00:00Z,26.5255,-82.0032,2.2,7.93,1111122 
SCCF RECON,ioos:station:SCCF:13:1,2016-02-21T12:00:00Z,26.5255,-82.0032,2.14,7.9,1111122 
SCCF RECON,ioos:station:SCCF:13:1,2016-02-21T13:00:00Z,26.5255,-82.0032,2.154,7.88,1111122 
SCCF RECON,ioos:station:SCCF:13:1,2016-02-21T14:00:00Z,26.5255,-82.0032,2.311,7.96,1111122 
SCCF RECON,ioos:station:SCCF:13:1,2016-02-21T15:00:00Z,26.5255,-82.0032,2.46,8.0,1111122 
SCCF RECON,ioos:station:SCCF:13:1,2016-02-21T16:00:00Z,26.5255,-82.0032,2.511,7.65,1111122 
SCCF RECON,ioos:station:SCCF:13:1,2016-02-21T17:00:00Z,26.5255,-82.0032,2.558,7.56,1111122 
SCCF RECON,ioos:station:SCCF:13:1,2016-02-21T18:00:00Z,26.5255,-82.0032,2.59,7.53,1111122 
SCCF RECON,ioos:station:SCCF:13:1,2016-02-21T19:00:00Z,26.5255,-82.0032,2.581,7.75,1111122 
SCCF RECON,ioos:station:SCCF:13:1,2016-02-21T20:00:00Z,26.5255,-82.0032,2.509,7.57,1111122 
SCCF RECON,ioos:station:SCCF:13:1,2016-02-21T21:00:00Z,26.5255,-82.0032,2.406,7.69,1111122 
SCCF RECON,ioos:station:SCCF:13:1,2016-02-21T22:00:00Z,26.5255,-82.0032,2.34,7.66,1111122 
SCCF RECON,ioos:station:SCCF:13:1,2016-02-21T23:00:00Z,26.5255,-82.0032,2.296,7.79,1111122 
SCCF RECON,ioos:station:SCCF:13:1,2016-02-22T00:00:00Z,26.5255,-82.0032,2.27,7.89,1111122 
SCCF RECON,ioos:station:SCCF:13:1,2016-02-22T01:00:00Z,26.5255,-82.0032,2.34,7.93,1111122 
SCCF RECON,ioos:station:SCCF:13:1,2016-02-22T02:00:00Z,26.5255,-82.0032,2.47,7.85,1111122 
SCCF RECON,ioos:station:SCCF:13:1,2016-02-22T03:00:00Z,26.5255,-82.0032,2.587,7.36,1111122 
SCCF RECON,ioos:station:SCCF:13:1,2016-02-22T04:00:00Z,26.5255,-82.0032,2.65,7.51,1111122 
SCCF RECON,ioos:station:SCCF:13:1,2016-02-22T05:00:00Z,26.5255,-82.0032,2.71,7.62,1111122 
SCCF RECON,ioos:station:SCCF:13:1,2016-02-22T06:00:00Z,26.5255,-82.0032,2.74,7.57,1111122 
SCCF RECON,ioos:station:SCCF:13:1,2016-02-22T07:00:00Z,26.5255,-82.0032,2.69,7.65,1111122 
SCCF RECON,ioos:station:SCCF:13:1,2016-02-22T08:00:00Z,26.5255,-82.0032,2.58,7.61,1111122 
SCCF RECON,ioos:station:SCCF:13:1,2016-02-22T09:00:00Z,26.5255,-82.0032,2.43,7.29,1111122 
SCCF RECON,ioos:station:SCCF:13:1,2016-02-22T10:00:00Z,26.5255,-82.0032,2.32,7.57,1111122 
SCCF RECON,ioos:station:SCCF:13:1,2016-02-22T11:00:00Z,26.5255,-82.0032,2.241,7.63,1111122 
SCCF RECON,ioos:station:SCCF:13:1,2016-02-22T12:00:00Z,26.5255,-82.0032,2.17,7.65,1111122 
SCCF RECON,ioos:station:SCCF:13:1,2016-02-22T13:00:00Z,26.5255,-82.0032,2.14,7.66,1111122 
SCCF RECON,ioos:station:SCCF:13:1,2016-02-22T14:00:00Z,26.5255,-82.0032,2.24,7.72,1111122 
SCCF RECON,ioos:station:SCCF:13:1,2016-02-22T15:00:00Z,26.5255,-82.0032,2.43,7.78,1111122 
SCCF RECON,ioos:station:SCCF:13:1,2016-02-22T16:00:00Z,26.5255,-82.0032,2.516,7.5,1111122 
SCCF RECON,ioos:station:SCCF:13:1,2016-02-22T17:00:00Z,26.5255,-82.0032,2.567,7.35,1111122 
SCCF RECON,ioos:station:SCCF:13:1,2016-02-22T18:00:00Z,26.5255,-82.0032,2.637,7.59,1111122 
SCCF RECON,ioos:station:SCCF:13:1,2016-02-22T19:00:00Z,26.5255,-82.0032,2.657,8.04,1111122 
SCCF RECON,ioos:station:SCCF:13:1,2016-02-22T20:00:00Z,26.5255,-82.0032,2.623,8.16,1111122 
SCCF RECON,ioos:station:SCCF:13:1,2016-02-22T21:00:00Z,26.5255,-82.0032,2.561,8.03,1111122 
SCCF RECON,ioos:station:SCCF:13:1,2016-02-22T22:00:00Z,26.5255,-82.0032,2.48,8.0,1111122 
SCCF RECON,ioos:station:SCCF:13:1,2016-02-22T23:00:00Z,26.5255,-82.0032,2.39,7.47,1111122 
SCCF RECON,ioos:station:SCCF:13:1,2016-02-23T00:00:00Z,26.5255,-82.0032,2.34,7.59,1111122 
SCCF RECON,ioos:station:SCCF:13:1,2016-02-23T01:00:00Z,26.5255,-82.0032,2.31,7.58,1111122 
SCCF RECON,ioos:station:SCCF:13:1,2016-02-23T02:00:00Z,26.5255,-82.0032,2.39,7.69,1111122 
SCCF RECON,ioos:station:SCCF:13:1,2016-02-23T03:00:00Z,26.5255,-82.0032,2.56,7.43,1111122 
SCCF RECON,ioos:station:SCCF:13:1,2016-02-23T04:00:00Z,26.5255,-82.0032,2.66,7.34,1111122 
SCCF RECON,ioos:station:SCCF:13:1,2016-02-23T05:00:00Z,26.5255,-82.0032,2.72,7.54,1111122 
SCCF RECON,ioos:station:SCCF:13:1,2016-02-23T06:00:00Z,26.5255,-82.0032,2.76,7.49,1111122 
SCCF RECON,ioos:station:SCCF:13:1,2016-02-23T07:00:00Z,26.5255,-82.0032,2.75,7.44,1111122 
SCCF RECON,ioos:station:SCCF:13:1,2016-02-23T08:00:00Z,26.5255,-82.0032,2.67,7.4,1111122 
SCCF RECON,ioos:station:SCCF:13:1,2016-02-23T09:00:00Z,26.5255,-82.0032,2.55,7.41,1111122 
SCCF RECON,ioos:station:SCCF:13:1,2016-02-23T10:00:00Z,26.5255,-82.0032,2.41,7.13,1111122 
SCCF RECON,ioos:station:SCCF:13:1,2016-02-23T11:00:00Z,26.5255,-82.0032,2.32,7.38,1111122 
SCCF RECON,ioos:station:SCCF:13:1,2016-02-23T12:00:00Z,26.5255,-82.0032,2.241,7.39,1111122 
SCCF RECON,ioos:station:SCCF:13:1,2016-02-23T13:00:00Z,26.5255,-82.0032,2.18,7.46,1111122 
SCCF RECON,ioos:station:SCCF:13:1,2016-02-23T14:00:00Z,26.5255,-82.0032,2.209,7.5,1111122 
SCCF RECON,ioos:station:SCCF:13:1,2016-02-23T15:00:00Z,26.5255,-82.0032,2.357,7.57,1111122 